Location: Carri�res
(48.9069°N, 2.1792°E)
Time: 13:39:13
(UTC+00:00)

ATLAS 2AS CENTAUR R/B - Pass Details

Date: 17 January 2021
Orbit: 947 x 1265 km, 63.7° (Epoch: 13 February)

Event Time Altitude Azimuth Distance (km) Brightness Sun altitude
Rises 20:25:46 0° 284° (WNW) 4,221 6.7 -38.8°
Reaches altitude 10° 20:29:10 10° 296° (WNW) 3,238 5.9 -39.4°
Enters shadow 20:35:27 27° 350° (N) 2,164 4.4 -40.4°
